Location: Fontevrault
(47.1823°N, 0.0493°E)
Time: 13:47:28
(UTC+00:00)

ATLAS CENTAUR R/B - Pass Details

Date: 16 June 2021
Orbit: 472 x 671 km, 64.6° (Epoch: 13 June)

Event Time Altitude Azimuth Distance (km) Brightness Sun altitude
Rises 21:36:38 0° 326° (NW) 2,763 7.1 -12.3°
Reaches altitude 10° 21:38:52 10° 332° (NNW) 1,897 5.6 -12.5°
Maximum altitude 21:43:01 46° 46° (NE) 818 2.2 -12.9°
Enters shadow 21:46:25 16° 116° (ESE) 1,647 3.2 -13.2°
